[[{"header":{"parameterUnit":"m.s-1","parameterCategory":1,"la1":30.2991,"la2":30.254,"lo1":-89.0895,"lo2":-89.0444,"dy":0.0017,"dx":0.0017,"nx":28,"ny":28,"refTime":"2024-06-14T03:00:00:Z","depth":0,"parameterNumber":2,"parameterNumberName":"U-component_of_WINDS"},"data":[0,0,0,0,0,0,0,0,0,0,0,0,0,0,0,0,0,0,0,0,0,0,0,0,0,0,0,0,0,0,0,0,0,0,0,0,0,0,0,0,0,0,0,0,0,0,0,0,0,0,0,0,0,0,0,0,0,0,-0.5059,-0.506,0,-0.512,-0.5121,-0.5122,-0.5118,-0.5117,-0.5116,-0.5115,-0.5178,-0.5181,-0.5183,0,0,0,0,0,0,0,0,0,0,0,0,0,-0.4939,-0.4941,-0.5059,-0.506,-0.5061,-0.512,-0.5121,-0.5122,-0.5118,-0.5117,-0.5116,-0.5115,-0.5178,-0.5181,-0.5184,0,0,0,0,0,0,0,0,0,0,0,0,0,-0.4995,-0.4942,-0.5059,-0.5066,-0.5067,-0.512,-0.5121,-0.5122,-0.5118,-0.5117,-0.5116,-0.5114,-0.5177,-0.518,-0.5184,-0.5234,0,0,-0.5196,-0.5197,0,0,0,0,0,0,0,0,-0.4992,-0.4999,-0.5064,-0.5065,-0.5067,-0.511,-0.5102,-0.516,-0.5119,-0.5099,-0.5115,-0.5114,-0.5157,-0.5162,-0.5177,-0.5237,-0.524,-0.5196,-0.5198,-0.52,-0.5201,0,0,0,0,0,0,0,-0.4988,-0.4997,-0.5083,-0.5065,-0.5067,-0.5066,-0.5073,-0.5113,-0.5135,-0.5101,-0.51,-0.5108,-0.5157,-0.5173,-0.5178,-0.5241,-0.5196,-0.5199,-0.5201,-0.5203,-0.5346,-0.5347,0,0,0,0,0,0,-0.4982,-0.4994,-0.5081,-0.5085,-0.5025,-0.5069,-0.5077,-0.5098,-0.5134,-0.5138,-0.5109,-0.5107,-0.5167,-0.5174,-0.518,-0.5242,-0.52,-0.5203,-0.5205,-0.5344,-0.5346,-0.5348,0,0,0,0,0,0,-0.498,-0.499,-0.5079,-0.5039,-0.5051,-0.5073,-0.5097,-0.51,-0.5115,-0.514,-0.5144,-0.5121,-0.5166,-0.5175,-0.5221,-0.5244,-0.5205,-0.5208,-0.5343,-0.5345,-0.5347,-0.5364,0,0,0,0,0,0,-0.4977,-0.4989,-0.5009,-0.504,-0.5053,-0.5118,-0.5098,-0.5102,-0.5122,-0.512,-0.5153,-0.5157,-0.5166,-0.5215,-0.5225,-0.5248,-0.5211,-0.5341,-0.5344,-0.5346,-0.5362,-0.5367,-0.5371,0,0,0,0,0,-0.4972,-0.5011,-0.501,-0.502,-0.5077,-0.512,-0.5127,-0.5137,-0.5123,-0.5143,-0.5159,-0.5156,-0.524,-0.522,-0.523,-0.5255,-0.5339,-0.5343,-0.5346,-0.536,-0.5366,-0.5371,0,0,0,0,0,0,-0.4982,-0.5015,-0.5014,-0.5064,-0.5089,-0.5119,-0.5144,-0.5143,-0.5172,-0.517,-0.5181,-0.5188,-0.5234,-0.525,-0.5227,-0.5306,-0.5288,-0.5293,-0.5294,-0.5301,-0.5305,-0.5301,-0.5214,0,0,0,0,0,-0.499,-0.5022,-0.5049,-0.5091,-0.5103,-0.5121,-0.514,-0.5146,-0.5172,-0.5183,-0.5202,-0.5228,-0.526,-0.5281,-0.5312,-0.5364,-0.5371,-0.5387,-0.5391,-0.5395,-0.54,-0.5428,-0.5436,-0.5359,-0.5359,-0.5359,0,0,-0.5007,-0.5029,-0.5048,-0.5093,-0.5113,-0.5146,-0.513,-0.5166,-0.519,-0.5188,-0.5233,-0.5248,-0.5278,-0.5327,-0.5349,-0.5341,-0.5423,-0.5399,-0.5402,-0.5405,-0.5433,-0.544,-0.5446,-0.5362,-0.5361,-0.5361,0,0,-0.5054,-0.5074,-0.5111,-0.5131,-0.5162,-0.5174,-0.5183,-0.5213,-0.5223,-0.5268,-0.5267,-0.5296,-0.5352,-0.5373,-0.5391,-0.5446,-0.5444,-0.5456,-0.5481,-0.5509,-0.5515,-0.552,-0.554,-0.5547,-0.5461,-0.5461,-0.5461,0,-0.5071,-0.512,-0.513,-0.5166,-0.5185,-0.5185,-0.5223,-0.5242,-0.5281,-0.5295,-0.5285,-0.5354,-0.5374,-0.5428,-0.5442,-0.5457,-0.5467,-0.5453,-0.5513,-0.5519,-0.5524,-0.5543,-0.555,-0.5462,-0.5462,-0.5462,-0.5462,0,-0.514,-0.5174,-0.52,-0.5238,-0.5261,-0.5297,-0.5312,-0.5334,-0.5338,-0.5351,-0.5397,-0.5421,-0.5457,-0.547,-0.5474,-0.5525,-0.5518,-0.5511,-0.5492,-0.5532,-0.555,-0.5558,-0.5464,-0.5464,-0.5463,-0.5463,0,0,-0.5195,-0.5237,-0.5247,-0.5264,-0.5298,-0.5325,-0.5361,-0.5396,-0.5415,-0.5442,-0.5473,-0.552,-0.5513,-0.5533,-0.554,-0.5564,-0.5607,-0.5553,-0.5554,-0.5562,-0.5664,-0.567,-0.5678,-0.5606,-0.5607,-0.5608,-0.5662,0,-0.5245,-0.531,-0.532,-0.5377,-0.5408,-0.5409,-0.5441,-0.5465,-0.5478,-0.5507,-0.5522,-0.5555,-0.5543,-0.5556,-0.558,-0.5596,-0.5627,-0.5593,-0.5634,-0.5636,-0.5627,-0.5688,-0.5693,-0.5743,-0.5669,-0.567,-0.5671,0,-0.5313,-0.5342,-0.5402,-0.5432,-0.5445,-0.5474,-0.5507,-0.5534,-0.5562,-0.557,-0.5593,-0.5596,-0.5635,-0.5615,-0.5667,-0.5644,-0.5661,-0.5672,-0.5674,-0.5678,-0.5656,-0.5693,-0.5759,-0.5766,-0.5682,-0.5682,-0.5681,0,-0.5347,-0.5401,-0.5444,-0.5458,-0.5494,-0.5514,-0.553,-0.5556,-0.5577,-0.5606,-0.5619,-0.5653,-0.5671,-0.5696,-0.5709,-0.5693,-0.5761,-0.5742,-0.5768,-0.5768,-0.5782,-0.5781,-0.5852,-0.5794,-0.5794,-0.5794,-0.5794,0,-0.5402,-0.5439,-0.5459,-0.5486,-0.5527,-0.5538,-0.5579,-0.5594,-0.5618,-0.5647,-0.565,-0.5677,-0.5692,-0.5722,-0.5732,-0.5774,-0.5782,-0.579,-0.5792,-0.5789,-0.5788,-0.5801,-0.5798,-0.5796,-0.5795,-0.5795,-0.5795,0,-0.5447,-0.5462,-0.5509,-0.5539,-0.5547,-0.5576,-0.5602,-0.5628,-0.5641,-0.5678,-0.5688,-0.5709,-0.5744,-0.5759,-0.5802,-0.5809,-0.5857,-0.5857,-0.5848,-0.5849,-0.5874,-0.5871,-0.5955,-0.5966,-0.5901,-0.5902,-0.5903,0,-0.5481,-0.5509,-0.5542,-0.5562,-0.5579,-0.5611,-0.5632,-0.5644,-0.5666,-0.57,-0.5721,-0.5757,-0.5786,-0.5842,-0.5861,-0.5895,-0.5895,-0.5922,-0.59,-0.5897,-0.5895,-0.5893,-0.5896,-0.5926,-0.5927,-0.5927,-0.5928,0,-0.554,-0.5546,-0.5576,-0.5609,-0.5634,-0.5661,-0.5687,-0.5703,-0.5719,-0.5744,-0.578,-0.5802,-0.5847,-0.5882,-0.5916,-0.5933,-0.5933,-0.5934,-0.5942,-0.594,-0.5933,-0.5937,-0.5859,-0.5932,-0.5932,-0.5931,-0.5931,-0.5931,-0.558,-0.5605,-0.5633,-0.5666,-0.5687,-0.5711,-0.5737,-0.5754,-0.5784,-0.5821,-0.5827,-0.5865,-0.5892,-0.5939,-0.5957,-0.5987,-0.598,-0.5992,-0.5995,-0.5997,-0.5999,-0.5929,-0.5994,-0.5994,-0.5993,-0.5993,-0.5993,0,-0.5639,-0.5657,-0.5688,-0.5724,-0.575,-0.5748,-0.5777,-0.5799,-0.5833,-0.5859,-0.5887,-0.5929,-0.5963,-0.5985,-0.6019,-0.604,-0.6041,-0.6048,-0.6047,-0.605,-0.6003,-0.5993,-0.6047,-0.6047,-0.6047,-0.6047,-0.6047,-0.6047,-0.5673,-0.5715,-0.5725,-0.5778,-0.5795,-0.5833,-0.5849,-0.5872,-0.5892,-0.5939,-0.5967,-0.5981,-0.6005,-0.6042,-0.6073,-0.6079,-0.6091,-0.6099,-0.6104,-0.6059,-0.6054,-0.6048,-0.6039,-0.6102,-0.6102,-0.6149,-0.615,-0.615]},{"header":{"parameterUnit":"m.s-1","parameterCategory":1,"la1":30.2991,"la2":30.254,"lo1":-89.0895,"lo2":-89.0444,"dy":0.0017,"dx":0.0017,"nx":28,"ny":28,"refTime":"2024-06-14T03:00:00:Z","depth":0,"parameterNumber":3,"parameterNumberName":"V-component_of_WINDS"},"data":[0,0,0,0,0,0,0,0,0,0,0,0,0,0,0,0,0,0,0,0,0,0,0,0,0,0,0,0,0,0,0,0,0,0,0,0,0,0,0,0,0,0,0,0,0,0,0,0,0,0,0,0,0,0,0,0,0,0,-2.5531,-2.5533,0,-2.5636,-2.5637,-2.5639,-2.564,-2.5639,-2.5638,-2.5636,-2.5741,-2.5745,-2.5749,0,0,0,0,0,0,0,0,0,0,0,0,0,-2.5331,-2.5335,-2.5531,-2.5533,-2.5534,-2.5636,-2.5637,-2.5639,-2.5641,-2.5639,-2.5637,-2.5636,-2.574,-2.5745,-2.5749,0,0,0,0,0,0,0,0,0,0,0,0,0,-2.5425,-2.5336,-2.5531,-2.5547,-2.555,-2.5636,-2.5637,-2.5639,-2.5641,-2.5639,-2.5637,-2.5635,-2.5738,-2.5744,-2.575,-2.5826,0,0,-2.5768,-2.5771,0,0,0,0,0,0,0,0,-2.542,-2.5432,-2.5543,-2.5546,-2.5549,-2.5623,-2.5605,-2.5702,-2.5641,-2.5606,-2.5636,-2.5634,-2.5703,-2.5712,-2.5736,-2.5831,-2.5836,-2.5769,-2.5773,-2.5775,-2.5777,0,0,0,0,0,0,0,-2.5413,-2.5428,-2.5573,-2.5545,-2.5549,-2.5549,-2.556,-2.5623,-2.5664,-2.5609,-2.5609,-2.5622,-2.5704,-2.573,-2.5738,-2.5837,-2.5769,-2.5774,-2.5778,-2.578,-2.6001,-2.6003,0,0,0,0,0,0,-2.5404,-2.5422,-2.5569,-2.5576,-2.5478,-2.5554,-2.5566,-2.5601,-2.5664,-2.5671,-2.5624,-2.5622,-2.5721,-2.5731,-2.5742,-2.5836,-2.5775,-2.5781,-2.5784,-2.5999,-2.6001,-2.6004,0,0,0,0,0,0,-2.5399,-2.5417,-2.5565,-2.5499,-2.5518,-2.5559,-2.5599,-2.5604,-2.563,-2.5675,-2.5682,-2.5642,-2.572,-2.5734,-2.5806,-2.584,-2.5783,-2.5789,-2.5996,-2.6,-2.6003,-2.6024,0,0,0,0,0,0,-2.5394,-2.5415,-2.5445,-2.55,-2.5522,-2.5628,-2.5601,-2.5608,-2.5641,-2.5639,-2.5694,-2.5701,-2.5719,-2.5797,-2.5812,-2.5847,-2.5794,-2.5993,-2.5998,-2.6002,-2.602,-2.6028,-2.6034,0,0,0,0,0,-2.5386,-2.5446,-2.5446,-2.5464,-2.556,-2.563,-2.5642,-2.5662,-2.5644,-2.5674,-2.5702,-2.57,-2.5834,-2.5804,-2.5821,-2.5858,-2.5991,-2.5996,-2.6001,-2.6017,-2.6026,-2.6034,0,0,0,0,0,0,-2.5393,-2.5453,-2.5455,-2.5534,-2.5577,-2.563,-2.5668,-2.5671,-2.5719,-2.5715,-2.5737,-2.575,-2.5822,-2.5847,-2.5813,-2.5936,-2.591,-2.5919,-2.5917,-2.5925,-2.5932,-2.5924,-2.5799,0,0,0,0,0,-2.5404,-2.5456,-2.5506,-2.5571,-2.5592,-2.5627,-2.5658,-2.567,-2.5714,-2.5732,-2.5766,-2.5809,-2.5861,-2.5895,-2.5945,-2.6024,-2.6036,-2.6058,-2.6065,-2.607,-2.6078,-2.6122,-2.6133,-2.6021,-2.6021,-2.6021,0,0,-2.5426,-2.5466,-2.5497,-2.5573,-2.5608,-2.5661,-2.5642,-2.5698,-2.5738,-2.5741,-2.5811,-2.5838,-2.5887,-2.5963,-2.5999,-2.5987,-2.6111,-2.6077,-2.6081,-2.6085,-2.6128,-2.6139,-2.6148,-2.6024,-2.6023,-2.6023,0,0,-2.5494,-2.5529,-2.5588,-2.5623,-2.5676,-2.5699,-2.5713,-2.5766,-2.5784,-2.5855,-2.5859,-2.5906,-2.5994,-2.603,-2.6059,-2.6142,-2.6142,-2.6158,-2.6193,-2.6236,-2.6245,-2.6253,-2.6283,-2.6293,-2.6165,-2.6165,-2.6165,0,-2.5515,-2.5596,-2.5617,-2.5675,-2.5708,-2.5714,-2.5774,-2.5806,-2.5873,-2.5895,-2.5882,-2.5994,-2.6027,-2.6112,-2.6133,-2.6156,-2.6173,-2.6151,-2.6242,-2.625,-2.6258,-2.6287,-2.6298,-2.6166,-2.6166,-2.6166,-2.6166,0,-2.5619,-2.5675,-2.5716,-2.5781,-2.5819,-2.5877,-2.5907,-2.5943,-2.5952,-2.5976,-2.6048,-2.6089,-2.6148,-2.6169,-2.6178,-2.6256,-2.6247,-2.6237,-2.6212,-2.627,-2.6297,-2.6308,-2.6169,-2.6168,-2.6168,-2.6167,0,0,-2.5693,-2.5771,-2.5785,-2.5815,-2.5875,-2.5918,-2.5976,-2.6035,-2.6066,-2.6111,-2.6161,-2.6236,-2.6228,-2.6262,-2.6274,-2.6312,-2.6376,-2.6298,-2.63,-2.6311,-2.6465,-2.6472,-2.6484,-2.6376,-2.6378,-2.638,-2.6461,0,-2.5768,-2.5873,-2.5894,-2.5985,-2.6037,-2.6044,-2.6095,-2.6136,-2.6161,-2.6208,-2.6234,-2.6288,-2.6273,-2.6293,-2.6331,-2.636,-2.6407,-2.6355,-2.6422,-2.6424,-2.6409,-2.6498,-2.6506,-2.658,-2.6471,-2.6473,-2.6475,0,-2.5869,-2.5918,-2.6014,-2.6068,-2.609,-2.6136,-2.6192,-2.6237,-2.6285,-2.63,-2.6338,-2.6347,-2.6407,-2.6379,-2.6463,-2.6427,-2.6456,-2.6475,-2.6478,-2.6485,-2.6453,-2.6508,-2.6604,-2.6615,-2.6492,-2.649,-2.6489,0,-2.5914,-2.6004,-2.6074,-2.6099,-2.6163,-2.6195,-2.6223,-2.6269,-2.6303,-2.6351,-2.6374,-2.6428,-2.6458,-2.65,-2.6524,-2.6501,-2.6606,-2.658,-2.662,-2.662,-2.6642,-2.664,-2.6744,-2.666,-2.666,-2.666,-2.6659,0,-2.5995,-2.6053,-2.6095,-2.6137,-2.6203,-2.6227,-2.6291,-2.6319,-2.636,-2.6408,-2.6417,-2.6461,-2.649,-2.6539,-2.6557,-2.6624,-2.6637,-2.6651,-2.6655,-2.665,-2.6649,-2.6669,-2.6665,-2.6663,-2.6662,-2.6661,-2.6661,0,-2.6055,-2.6086,-2.6162,-2.6217,-2.6232,-2.6278,-2.6325,-2.6366,-2.6391,-2.6452,-2.6467,-2.6506,-2.6564,-2.6591,-2.6663,-2.6675,-2.6751,-2.6752,-2.6735,-2.6737,-2.6776,-2.6772,-2.6897,-2.6915,-2.6819,-2.682,-2.682,0,-2.6105,-2.6151,-2.6211,-2.6244,-2.6273,-2.6327,-2.6362,-2.6387,-2.6424,-2.6482,-2.6517,-2.6575,-2.6623,-2.6715,-2.6749,-2.6804,-2.6806,-2.6846,-2.6814,-2.6808,-2.6807,-2.6804,-2.6809,-2.6852,-2.6853,-2.6854,-2.6854,0,-2.619,-2.6203,-2.6254,-2.6311,-2.6354,-2.6399,-2.6444,-2.647,-2.6503,-2.6543,-2.6603,-2.6641,-2.6715,-2.6773,-2.683,-2.6858,-2.6862,-2.6864,-2.6876,-2.6872,-2.686,-2.6867,-2.6751,-2.6861,-2.686,-2.686,-2.6859,-2.6859,-2.6247,-2.6288,-2.6338,-2.6394,-2.6431,-2.6473,-2.6515,-2.6546,-2.6596,-2.6659,-2.6671,-2.6735,-2.6782,-2.6859,-2.689,-2.694,-2.693,-2.6948,-2.6953,-2.6957,-2.6959,-2.6853,-2.695,-2.695,-2.695,-2.695,-2.6949,0,-2.6333,-2.6366,-2.6418,-2.6481,-2.6526,-2.6526,-2.6576,-2.6613,-2.667,-2.6714,-2.6761,-2.683,-2.6887,-2.6926,-2.6983,-2.7016,-2.7019,-2.703,-2.7028,-2.7034,-2.6964,-2.6947,-2.7027,-2.7027,-2.7027,-2.7027,-2.7027,-2.7027,-2.6383,-2.6453,-2.6472,-2.656,-2.6592,-2.6655,-2.6684,-2.6722,-2.6758,-2.6835,-2.6882,-2.6908,-2.695,-2.7011,-2.7063,-2.7073,-2.7093,-2.7105,-2.7114,-2.7047,-2.7039,-2.7032,-2.7017,-2.7109,-2.7109,-2.7181,-2.7182,-2.7182]}]]